This is the latest recevied weather packets stored in our database for station/object PA3DZX-13. If no packets are shown the sender has not sent any weather packets the latest 10 day(s).
| Time | Temp. | Humidity | Pressure | Rain* | Wind** | Luminosity | Snow |
|---|---|---|---|---|---|---|---|
| 1788467982 | 18.89° C | 77% | 1016.3 hPa | 0 mm | - | - | - |
| 1788467082 | 18.89° C | 76% | 1016.2 hPa | 0 mm | - | - | - |
| 1788466182 | 17.78° C | 76% | 1016.4 hPa | 0 mm | - | - | - |
| 1788465282 | 17.78° C | 75% | 1016.3 hPa | 0 mm | - | - | - |
| 1788464381 | 18.89° C | 73% | 1016.4 hPa | 0 mm | - | - | - |
| 1788463481 | 18.89° C | 72% | 1016.3 hPa | 0 mm | - | - | - |
| 1788462579 | 20° C | 68% | 1016.3 hPa | 0 mm | - | - | - |
| 1788461680 | 20° C | 68% | 1016.3 hPa | 0 mm | - | - | - |
| 1788460779 | 20° C | 67% | 1016.1 hPa | 0 mm | - | - | - |
| 1788459878 | 20° C | 67% | 1016.3 hPa | 0 mm | - | - | - |
| 1788458977 | 20° C | 69% | 1016.3 hPa | 0 mm | - | - | - |
| 1788458077 | 20.56° C | 66% | 1016.2 hPa | 0 mm | - | - | - |
| 1788457176 | 20.56° C | 65% | 1015.5 hPa | 0 mm | - | - | - |
| 1788456275 | 20.56° C | 62% | 1015.6 hPa | 0 mm | - | - | - |
| 1788455375 | 21.67° C | 61% | 1015.6 hPa | 0 mm | - | - | - |
| 1788454474 | 21.67° C | 60% | 1015.9 hPa | 0 mm | - | - | - |
| 1788453573 | 21.67° C | 60% | 1015.7 hPa | 0 mm | - | - | - |
| 1788452674 | 21.67° C | 61% | 1015.8 hPa | 0 mm | - | - | - |
| 1788451801 | 21.67° C | 61% | 1015.8 hPa | 0 mm | - | - | - |
| 1788450873 | 21.67° C | 63% | 1015.6 hPa | 0 mm | - | - | - |
| 1788449972 | 21.67° C | 60% | 1015.6 hPa | 0 mm | - | - | - |
| 1788449072 | 21.67° C | 60% | 1015.6 hPa | 0 mm | - | - | - |
| 1788448171 | 21.67° C | 63% | 1015.5 hPa | 0 mm | - | - | - |
| 1788447270 | 21.67° C | 63% | 1015.5 hPa | 0 mm | - | - | - |
| 1788446370 | 21.67° C | 63% | 1015.5 hPa | 0 mm | - | - | - |
* Rain latest hour (hover to see other rain measurements)
** Current wind speed in m/s (hover to see current wind gust speed)